Weather in Paarl

South Africa     33°43′33″S   18°59′04″E
temp.,
°C
wind,
m/s
gust,
m/s
humid.,
%
clouds,
%
prec.,
mm/h
press.,
hPa
HPBL,
m
5 august, thu
thu523:00+11se119138 0.0 102317
02:00+11se118936 0.0 102311
05:00+9ese22890 0.0 102218
08:00+9ese22902 0.0 102333
11:00+15nne12661 0.0 1023718
14:00+18nw225610 0.0 10211246
17:00+16w116822 0.0 1021240
20:00+12ese22800 0.0 102228
6 august, fri
fri623:00+10ese32893 0.0 102239
02:00+9ese32894 0.0 102137
05:00+9ese32894 0.0 102131
08:00+9e22850 0.0 102221
11:00+16nnw22620 0.0 1022494
14:00+18nw22507 0.0 10201007
17:00+16nw22640 0.0 1020131
20:00+11se11820 0.0 102210
7 august, sat
sat723:00+10e22790 0.0 102211
02:00+10ese22704 0.0 102112
05:00+9ese22675 0.0 102012
08:00+10e2256100 0.0 102113
11:00+17nne1139100 0.0 1020263
14:00+19nnw1236100 0.0 1017459
17:00+16nw1161100 0.0 101611
20:00+13e2247100 0.0 101511
8 august, sun
sun823:00+12nnw1151100 0.0 101511
02:00+10n1163100 0.0 101513
05:00+9n2271100 0.0 101515
08:00+9nne2271100 0.0 101521
11:00+14nnw3652100 0.0 1016538
14:00+15nnw6960100 0.0 10141364
17:00+13nnw6117835 0.2 10161117
20:00+10nw4898100 6.8 1017555
9 august, mon
mon923:00+10wsw2499100 9.4 1021358
02:00+9sw238847 11.2 102393
05:00+7s22862 0.1 102620
08:00+7sse238775 0.2 103053
11:00+11s226553 0.1 10321169
14:00+12se225534 0.1 10311263
17:00+12se12591 0.0 1030559
20:00+7ese33740 0.0 103244